DW5078 Weather Reports


Display with metric or nautical units.
time (UTC)temp
F
wind
direction
speed
MPH
gust
MPH
rain 1hr
in
rain 24hr
in
rain mn
in
humidity
%
barometer
mb
20260906014808 90 134 0.0 0.0 0.00 0.00 0.00 60 1006.8
20260906013806 90 134 0.0 0.0 0.00 0.00 0.00 60 1006.8
20260906012807 90 134 0.0 0.0 0.00 0.00 0.00 60 1006.5
20260906011806 90 134 0.0 0.0 0.00 0.00 0.00 60 1006.3
20260906010807 90 134 0.0 0.0 0.00 0.00 0.00 60 1006.1
20260906005806 90 134 0.0 0.0 0.00 0.00 0.00 60 1005.9
20260906004806 90 134 0.0 0.0 0.00 0.00 0.00 60 1005.8
20260906003806 90 134 0.0 0.0 0.00 0.00 0.00 60 1005.6
20260906002806 90 134 0.0 0.0 0.00 0.00 0.00 60 1005.7
20260906001806 90 134 0.0 0.0 0.00 0.00 0.00 60 1005.7
20260906000806 90 134 0.0 0.0 0.00 0.00 0.00 60 1005.6
20260905235808 90 134 0.0 0.0 0.00 0.00 0.00 60 1005.6
20260905234806 90 134 0.0 0.0 0.00 0.00 0.00 60 1005.4
20260905233806 90 134 0.0 0.0 0.00 0.00 0.00 60 1005.3
20260905232808 90 134 0.0 0.0 0.00 0.00 0.00 60 1005.4
20260905231806 90 134 0.0 0.0 0.00 0.00 0.00 60 1005.3
20260905230805 90 134 0.0 0.0 0.00 0.00 0.00 60 1005.4
20260905225805 90 134 0.0 0.0 0.00 0.00 0.00 60 1005.3
20260905224805 90 134 0.0 0.0 0.00 0.00 0.00 60 1005.3
20260905223804 90 134 0.0 0.0 0.00 0.00 0.00 60 1005.3
20260905222803 90 134 0.0 0.0 0.00 0.00 0.00 60 1005.2
20260905221806 90 134 0.0 0.0 0.00 0.00 0.00 60 1005.4
20260905220806 90 134 0.0 0.0 0.00 0.00 0.00 60 1005.4
20260905215806 90 134 0.0 0.0 0.00 0.00 0.00 60 1005.5
20260905214808 90 134 0.0 0.0 0.00 0.00 0.00 60 1005.6
20260905213806 90 134 0.0 0.0 0.00 0.00 0.00 60 1005.7
20260905211806 90 134 0.0 0.0 0.00 0.00 0.00 60 1005.9
20260905210806 90 134 0.0 0.0 0.00 0.00 0.00 60 1006.0
20260905205806 90 134 0.0 0.0 0.00 0.00 0.00 60 1006.1
20260905204809 90 134 0.0 0.0 0.00 0.00 0.00 60 1006.3
20260905203806 90 134 0.0 0.0 0.00 0.00 0.00 60 1006.5
20260905202806 90 134 0.0 0.0 0.00 0.00 0.00 60 1006.6
20260905201805 90 134 0.0 0.0 0.00 0.00 0.00 60 1006.7
20260905200806 90 134 0.0 0.0 0.00 0.00 0.00 60 1006.9
20260905195806 90 134 0.0 0.0 0.00 0.00 0.00 60 1007.0
20260905194805 90 134 0.0 0.0 0.00 0.00 0.00 60 1007.1
20260905193805 90 134 0.0 0.0 0.00 0.00 0.00 60 1007.2
20260905192805 90 134 0.0 0.0 0.00 0.00 0.00 60 1007.4
20260905191807 90 134 0.0 0.0 0.00 0.00 0.00 60 1007.6
20260905190805 90 134 0.0 0.0 0.00 0.00 0.00 60 1007.8
20260905185805 90 134 0.0 0.0 0.00 0.00 0.00 60 1008.0
20260905184807 90 134 0.0 0.0 0.00 0.00 0.00 60 1008.1
20260905183806 90 134 0.0 0.0 0.00 0.00 0.00 60 1008.4
20260905182806 90 134 0.0 0.0 0.00 0.00 0.00 60 1008.5
20260905181810 90 134 0.0 0.0 0.00 0.00 0.00 60 1008.6
20260905180805 90 134 0.0 0.0 0.00 0.00 0.00 60 1008.8
20260905175805 90 134 0.0 0.0 0.00 0.00 0.00 60 1008.9
20260905174805 90 134 0.0 0.0 0.00 0.00 0.00 60 1009.0
20260905173805 90 134 0.0 0.0 0.00 0.00 0.00 60 1009.2
20260905172805 90 134 0.0 0.0 0.00 0.00 0.00 60 1009.2
20260905171805 90 134 0.0 0.0 0.00 0.00 0.00 60 1009.3
20260905170805 90 134 0.0 0.0 0.00 0.00 0.00 60 1009.5
20260905165806 90 134 0.0 0.0 0.00 0.00 0.00 60 1009.5
20260905164805 90 134 0.0 0.0 0.00 0.00 0.00 60 1009.5
20260905163805 90 134 0.0 0.0 0.00 0.00 0.00 60 1009.6
20260905162805 90 134 0.0 0.0 0.00 0.00 0.00 60 1009.7
20260905161804 90 134 0.0 0.0 0.00 0.00 0.00 60 1009.5
20260905160806 90 134 0.0 0.0 0.00 0.00 0.00 60 1009.5
20260905155805 90 134 0.0 0.0 0.00 0.00 0.00 60 1009.5
20260905154804 90 134 0.0 0.0 0.00 0.00 0.00 61 1009.6
20260905153804 90 134 0.0 0.0 0.00 0.00 0.00 63 1009.5
20260905152805 90 134 0.0 0.0 0.00 0.00 0.00 64 1009.5
20260905151804 89 134 0.0 0.0 0.00 0.00 0.00 65 1009.5
20260905150804 89 134 0.0 0.0 0.00 0.00 0.00 66 1009.4
20260905145804 88 133 0.0 0.0 0.00 0.00 0.00 67 1009.4
20260905144804 88 133 0.0 0.0 0.00 0.00 0.00 67 1009.5
20260905143804 88 134 0.0 0.0 0.00 0.00 0.00 67 1009.5
20260905142805 88 134 0.0 0.0 0.00 0.00 0.00 68 1009.4
20260905141804 88 134 0.0 0.0 0.00 0.00 0.00 68 1009.4
20260905140804 89 134 0.0 0.0 0.00 0.00 0.00 66 1009.3
20260905135804 90 134 0.0 0.0 0.00 0.00 0.00 66 1009.4
20260905134804 90 134 0.0 0.0 0.00 0.00 0.00 64 1009.5
20260905133804 93 134 0.0 0.0 0.00 0.00 0.00 61 1009.4
20260905132804 92 134 0.0 0.0 0.00 0.00 0.00 50 1009.2
20260905131804 92 134 0.0 0.0 0.00 0.00 0.00 50 1009.1
20260905130804 92 134 0.0 0.0 0.00 0.00 0.00 50 1009.0
20260905125804 92 134 0.0 0.0 0.00 0.00 0.00 50 1008.9
20260905124804 92 134 0.0 0.0 0.00 0.00 0.00 50 1008.9
20260905123804 92 134 0.0 0.0 0.00 0.00 0.00 50 1008.8
20260905122804 92 134 0.0 0.0 0.00 0.00 0.00 50 1008.7
20260905121804 92 134 0.0 0.0 0.00 0.00 0.00 50 1008.4
20260905120804 92 134 0.0 0.0 0.00 0.00 0.00 50 1008.4
20260905115804 92 134 0.0 0.0 0.00 0.00 0.00 50 1008.5
20260905114804 92 134 0.0 0.0 0.00 0.00 0.00 50 1008.4
20260905113804 92 134 0.0 0.0 0.00 0.00 0.00 50 1008.4
20260905112804 92 134 0.0 0.0 0.00 0.00 0.00 50 1008.5
20260905111804 92 134 0.0 0.0 0.00 0.00 0.00 50 1008.4
20260905110804 92 134 0.0 0.0 0.00 0.00 0.00 50 1008.4
20260905105804 92 134 0.0 0.0 0.00 0.00 0.00 50 1008.5
20260905104804 92 134 0.0 0.0 0.00 0.00 0.00 50 1008.5
20260905103804 92 134 0.0 0.0 0.00 0.00 0.00 50 1008.5
20260905102804 92 134 0.0 0.0 0.00 0.00 0.00 50 1008.6
20260905101804 92 134 0.0 0.0 0.00 0.00 0.00 50 1008.4
20260905100804 92 134 0.0 0.0 0.00 0.00 0.00 50 1008.4
20260905095804 92 134 0.0 0.0 0.00 0.00 0.00 50 1008.5
20260905094804 92 134 0.0 0.0 0.00 0.00 0.00 50 1008.4
20260905093804 92 134 0.0 0.0 0.00 0.00 0.00 50 1008.3
20260905092804 92 134 0.0 0.0 0.00 0.00 0.00 50 1008.1
20260905091804 92 134 0.0 0.0 0.00 0.00 0.00 50 1008.0
20260905090804 92 134 0.0 0.0 0.00 0.00 0.00 50 1008.0
20260905085804 92 134 0.0 0.0 0.00 0.00 0.00 50 1008.0
20260905084804 92 134 0.0 0.0 0.00 0.00 0.00 50 1007.8
20260905083804 92 134 0.0 0.0 0.00 0.00 0.00 50 1007.8
20260905082804 92 134 0.0 0.0 0.00 0.00 0.00 50 1007.9
20260905081804 92 134 0.0 0.0 0.00 0.00 0.00 50 1007.9
20260905080804 92 134 0.0 0.0 0.00 0.00 0.00 50 1007.9
20260905075803 92 134 0.0 0.0 0.00 0.00 0.00 50 1007.8
20260905074803 92 134 0.0 0.0 0.00 0.00 0.00 50 1007.9
20260905073803 92 134 0.0 0.0 0.00 0.00 0.00 50 1007.9
20260905072803 92 134 0.0 0.0 0.00 0.00 0.00 50 1008.0
20260905071803 92 134 0.0 0.0 0.00 0.00 0.00 50 1008.1
20260905070803 92 134 0.0 0.0 0.00 0.00 0.00 50 1008.1
20260905065803 92 134 0.0 0.0 0.00 0.00 0.00 50 1008.1
20260905064803 92 134 0.0 0.0 0.00 0.00 0.00 50 1008.2
20260905063803 92 134 0.0 0.0 0.00 0.00 0.00 50 1008.2
20260905062803 92 134 0.0 0.0 0.00 0.00 0.00 50 1008.2
20260905061803 92 134 0.0 0.0 0.00 0.00 0.00 50 1008.2
20260905060803 92 134 0.0 0.0 0.00 0.00 0.00 50 1008.2
20260905055803 92 134 0.0 0.0 0.00 0.00 0.00 50 1008.2
20260905054803 92 134 0.0 0.0 0.00 0.00 0.00 50 1008.2
20260905053803 92 134 0.0 0.0 0.00 0.00 0.00 50 1008.1
20260905052803 92 134 0.0 0.0 0.00 0.00 0.00 50 1008.1
20260905051803 92 134 0.0 0.0 0.00 0.00 0.00 50 1008.0
20260905050803 92 134 0.0 0.0 0.00 0.00 0.00 50 1007.9
20260905045803 92 134 0.0 0.0 0.00 0.00 0.00 50 1007.9
20260905044803 92 134 0.0 0.0 0.00 0.00 0.00 50 1008.0
20260905043803 92 134 0.0 0.0 0.00 0.00 0.00 50 1008.0
20260905042803 92 134 0.0 0.0 0.00 0.00 0.00 50 1008.0
20260905041803 92 134 0.0 0.0 0.00 0.00 0.00 50 1007.9
20260905040803 92 134 0.0 0.0 0.00 0.00 0.00 50 1008.0
20260905035803 92 134 0.0 0.0 0.00 0.00 0.00 50 1008.0
20260905034803 92 134 0.0 0.0 0.00 0.00 0.00 50 1007.9
20260905033803 92 134 0.0 0.0 0.00 0.00 0.00 50 1007.9
20260905032803 92 134 0.0 0.0 0.00 0.00 0.00 50 1007.9
20260905031803 92 134 0.0 0.0 0.00 0.00 0.00 50 1007.9
20260905030803 92 134 0.0 0.0 0.00 0.00 0.00 50 1007.8
20260905025803 92 134 0.0 0.0 0.00 0.00 0.00 50 1007.7
20260905024803 92 134 0.0 0.0 0.00 0.00 0.00 50 1007.6
20260905023803 92 134 0.0 0.0 0.00 0.00 0.00 50 1007.6
20260905022803 92 134 0.0 0.0 0.00 0.00 0.00 50 1007.5
20260905021803 92 134 0.0 0.0 0.00 0.00 0.00 50 1007.3
20260905020803 92 134 0.0 0.0 0.00 0.00 0.00 50 1007.1
20260905015803 92 134 0.0 0.0 0.00 0.00 0.00 50 1006.9